Tracking 18980 objects as of 18-Feb-2018
HD Live streaming from Space Station
objects crossing your sky now

FENGYUN 1C DEB

Track FENGYUN 1C DEB now!
10-day predictions


NORAD ID: 30228
Int'l Code: 1999-025WM
Perigee: 587.6 km
Apogee: 654.7 km
Inclination: 99.0 °
Period: 97.0 minutes
Semi major axis: 6992 km
RCS: 0.0424 m2 (small)
Launch date: May 10, 1999
Source: People's Republic of China (PRC)
Launch site: Taiyaun Space Center, China (TSC)

Note: This is SATELLITE DEBRIS
aabbcc
Your satellite tracking list
Your tracking list is empty




NASA's NSSDC Master Catalog

Two Line Element Set (TLE):
1 30228U 99025WM  18048.35787049 +.00005338 +00000-0 +62287-3 0  9991
2 30228 098.9772 015.2691 0048018 038.6232 321.8398 14.84861878587434
Source of the keplerian elements: AFSPC